Погода в Бельдиби

Турция     36°43′18″N   30°33′49″E
темп.,
°C
ветер,
м/с
пор.,
м/с
влажн.,
%
обл.,
%
осадки,
мм/ч
давл.,
гПа
погр.,
м
9 марта, вт
вт900:00+8юз017892 0.0 101553
03:00+7з017289 0.0 101545
06:00+7з1161100 0.0 101544
09:00+10всв004798 0.0 1016109
12:00+12вюв3255100 0.0 1015607
15:00+11в2167100 0.5 1015482
18:00+10всв1170100 0.3 1015354
21:00+8зсз116878 0.3 101628
10 марта, ср
ср1000:00+7з225418 0.0 101630
03:00+7з115145 0.0 101539
06:00+7зсз1153100 0.0 101439
09:00+10юз1150100 0.0 1014141
12:00+13вюв3348100 0.0 1012722
15:00+15юв345168 0.0 10101096
18:00+13юв226362 0.0 1009501
21:00+10з117551 0.0 101024
11 марта, чт
чт1100:00+10зсз117593 0.0 101129
03:00+10сз117296 0.0 101039
06:00+9з1170100 0.0 100929
09:00+12юв116268 0.0 1009208
12:00+14вюв325844 0.1 1008809
15:00+14вюв336147 1.6 1006658
18:00+13св11611 1.4 1006210
21:00+9сз457712 2.6 1007201
12 марта, пт
пт1200:00+7сз566735 0.1 1010313
03:00+5сз565917 0.1 1013331
06:00+3сз56510 0.0 1015231
09:00+6сз45330 0.0 1018486
12:00+11с34200 0.0 1018798
15:00+14св33210 0.0 1018970
18:00+12ссв33330 0.0 1019457
21:00+8сз33340 0.0 102079
13 марта, сб
сб1300:00+7зсз00340 0.0 102149
03:00+5ссз11450 0.0 102150
06:00+5ссз11400 0.0 102051
09:00+9юв00330 0.0 1020120
12:00+12вюв32379 0.0 1020515
15:00+12вюв32395 0.0 1018534
18:00+10в114478 0.0 1018236
21:00+7с115072 0.0 101938